Погода в Морозово

Россия / Белгородская область     51°10′00″N   37°12′48″E
темп.,
°C
ветер,
м/с
пор.,
м/с
влажн.,
%
обл.,
%
осадки,
мм/ч
давл.,
гПа
погр.,
м
17 мая, вт
вт1700:00+6з512834 0.0 1012352
03:00+4з511871 0.0 1012242
06:00+4з512835 0.0 1012343
09:00+10зсз711625 0.0 10111316
12:00+13зсз8104986 0.3 10102183
15:00+12зсз7106021 0.8 10101576
18:00+12зсз59565 0.1 10091911
21:00+7з4107883 0.1 1009188
18 мая, ср
ср1800:00+5з35856 0.0 100986
03:00+3зсз35890 0.0 100978
06:00+4зсз36905 0.0 1009154
09:00+9сз677476 0.0 1010962
12:00+7сз4592100 0.1 1011466
15:00+9с2585100 0.3 1012591
18:00+11ссв698027 0.9 1012977
21:00+8ссв310895 1.2 1015302
19 мая, чт
чт1900:00+5с36930 0.0 1017100
03:00+4ссз4109571 0.0 1018205
06:00+5ссз49945 0.0 1019277
09:00+10ссз57651 0.0 1020823
12:00+14сз685467 0.0 10191706
15:00+14сз6959100 0.0 10181733
18:00+14сз711618 0.1 10181548
21:00+10сз41276100 0.1 1019326
20 мая, пт
пт2000:00+7сз35925 0.1 102066
03:00+6сз34926 0.1 102159
06:00+7ссз248884 0.0 1021125
09:00+12зсз3470100 0.0 1021634
12:00+16сз475287 0.0 10201856
15:00+16зсз4556100 0.1 10191474
18:00+12з3691100 1.3 1018210
21:00+10зюз2395100 2.9 101751
21 мая, сб
сб2100:00+11ююз4993100 0.4 1014200
03:00+11юз71687100 0.4 1010475
06:00+11юз71495100 2.9 1009459
09:00+13зюз81493100 3.5 1007564
12:00+15з61088100 0.4 10061069
15:00+17зсз4782100 0.5 1005775
18:00+14зсз2393100 1.7 100478
21:00+13всв3595100 3.4 1004117